Flag for Canada Weather past 2 weeks in Brantford, Ontario, Canada

Now
64 °F

Scattered clouds.


Feels Like: 64 °F
Forecast: 56 / 74 °F
Wind: 7 mph from North

Location: Hamilton Airport

Current Time: Jul 24, 2014 at 11:32:23 AM

Latest Report: Jul 24, 2014 at 11:00 AM


Visibility: 15 mi

Pressure: 30.08 "Hg

Humidity: 60%

Dew point: 50 °F

Location of BrantfordLocation

Historic Weather in Brantford — Graph

°F

Brantford temperature yesterday

Maximum temperature yesterday: 75 °F (at 2:00 AM)
Minimum temperature yesterday: 59 °F (at 11:00 PM)
Average temperature yesterday: 69 °F

Past Weeks' High & Low Weather Summary

 TemperatureHumidityPressure
High82 °F (Jul 21, 4:00 PM)100% (Jul 15, 4:00 AM)30.25 "Hg (Jul 15, 4:00 AM)
Low48 °F (Jul 17, 5:00 AM)38% (Jul 17, 4:00 PM)29.66 "Hg (Jul 15, 10:00 AM)
Average66 °F76%30.01 "Hg
* Reported Jul 9 10:00 AM — Jul 24 10:00 AM, Brantford, Weather by CustomWeather, © 2014

Note: Actual official high and low records may vary slightly from our data, if they occured in-between our weather recording intervals... More about our weather records

Advertising

Brantford weather history for previous 24 hours

 ConditionsComfort  
Time TempWeatherWind HumidityBarometerVisibility
10:00 AM
Jul 24
64 °FPassing clouds.10 mph56%30.08 "Hg15 mi
9:00 AM63 °FPassing clouds.9 mph64%30.08 "Hg15 mi
8:00 AM61 °FPassing clouds.8 mph68%30.07 "Hg15 mi
7:00 AM57 °FPartly cloudy.8 mph72%30.06 "Hg15 mi
6:00 AM57 °FPartly cloudy.9 mph72%30.04 "Hg15 mi
5:00 AM57 °FPassing clouds.8 mph77%30.03 "Hg15 mi
4:00 AM57 °FPassing clouds.7 mph77%30.02 "Hg15 mi
3:00 AM57 °FPassing clouds.8 mph77%30.01 "Hg15 mi
2:00 AM57 °FPassing clouds.7 mph82%30.01 "Hg15 mi
1:00 AM57 °FPassing clouds.8 mph82%30.02 "Hg15 mi
12:00 AM57 °FClear.5 mph82%30.02 "Hg15 mi
11:00 PM
Jul 23
59 °FPassing clouds.3 mph82%30.02 "Hg15 mi
10:00 PM61 °FPassing clouds.5 mph77%30.02 "Hg15 mi
9:00 PM63 °FScattered clouds.6 mph73%30.01 "Hg15 mi
8:00 PM64 °FScattered showers. Partly sunny.12 mph68%30.00 "Hg15 mi
7:00 PM64 °FPartly sunny.13 mph68%29.98 "Hg15 mi
6:00 PM66 °FOvercast.16 mph68%29.96 "Hg15 mi
5:00 PM68 °FPartly sunny.16 mph69%29.96 "Hg12 mi
4:00 PM73 °FBroken clouds.13 mph61%29.95 "Hg15 mi
3:00 PM72 °FPartly sunny.12 mph65%29.94 "Hg10 mi
2:00 PM72 °FBroken clouds.10 mph69%29.93 "Hg15 mi
1:00 PM72 °FPartly sunny.9 mph73%29.93 "Hg15 mi
12:00 PM70 °FBroken clouds.7 mph78%29.93 "Hg15 mi
11:00 AM70 °FPartly sunny.8 mph78%29.92 "Hg15 mi
Weather by CustomWeather, © 2014

See weather overviewHow to use our weather pages